Weather in Kuchenyayevo

Russia / Republic of Mordovia     54°43′46″N   46°22′54″E
temp.,
°C
wind,
m/s
gust,
m/s
humid.,
%
clouds,
%
prec.,
mm/h
press.,
hPa
HPBL,
m
13 august, sat
sat1300:00+16wnw117746 0.0 102211
03:00+15wnw11799 0.0 102211
06:00+17nw117230 0.0 102325
09:00+22nw225077 0.0 1022483
12:00+26nw233927 0.0 10221449
15:00+27nnw333790 0.0 10211837
18:00+24n3556100 0.0 1020154
21:00+19ene117499 0.0 102111
14 august, sun
sun1400:00+17e1182100 0.0 102111
03:00+16ne1187100 0.0 102111
06:00+18ne11813 0.0 102260
09:00+23e33555 0.0 1021698
12:00+26e334180 0.0 10211874
15:00+27e434095 0.0 10202013
18:00+24ene465316 0.0 1020333
21:00+18ene337136 0.0 102144
15 august, mon
mon1500:00+16e227665 0.0 102220
03:00+15ene227497 0.0 102212
06:00+17ene13698 0.0 102388
09:00+23e34487 0.0 1023753
12:00+26e453718 0.0 10231825
15:00+26e453661 0.0 10232155
18:00+23ene474728 0.0 1023317
21:00+17e226952 0.0 102416
16 august, tue
tue1600:00+16ene226049 0.0 102511
03:00+14ene22625 0.0 102511
06:00+16ene23624 0.0 102684
09:00+23e46415 0.0 1025699
12:00+26ese45375 0.0 10251853
15:00+27e45375 0.0 10242078
18:00+24e474911 0.0 1024306
21:00+17e22675 0.0 102519
17 august, wed
wed1700:00+16ene22675 0.0 102518
03:00+15e22795 0.0 102422
06:00+16e28763 0.0 1025208
09:00+23ese56475 0.0 1024746
12:00+26ese563484 0.0 10231592
15:00+26ese5636100 0.0 10221511
18:00+22e2251100 0.0 102113
21:00+18ene3365100 0.0 102146